Terminal Aerodrome Forecast
Issued by NWS Key West, FL

Home | Current Version | Previous Version | Text Only | Print | Product List | Glossary On
Versions: 1 2 3 4 5 6 7 8 9 10 11 12 13 14 15 16 17 18 19 20 21 22 23 24 25 26 27 28 29 30 31 32 33 34 35 36 37 38 39 40 41 42 43 44 45 46 47 48 49
000
FTUS42 KKEY 280200 AAB
TAFEYW
TAF AMD
KEYW 280253Z 2803/2824 18012G20KT P6SM VCSH SCT025 SCT100
     FM280400 16008KT P6SM VCSH SCT026 BKN060
     FM281500 17008KT P6SM SCT026=

USA.gov is the U.S. government's official web portal to all federal, state and local government web resources and services.